Weather in Zasopka

Russia / Zabaykalsky Krai     52°00′41″N   113°24′49″E
temp.,
°C
wind,
m/s
gust,
m/s
humid.,
%
clouds,
%
prec.,
mm/h
press.,
hPa
HPBL,
m
12 may, wed
wed1200:00+5wnw22524 0.0 100739
03:00+3w22660 0.0 100844
06:00+1w23760 0.0 100978
09:00+7w35470 0.0 1008736
12:00+13wnw47265 0.0 10052393
15:00+14wnw682864 0.0 10042768
18:00+13nw793786 0.0 10031339
21:00+6w127269 1.1 100685
13 may, thu
thu1300:00+5wsw25752 0.3 1007126
03:00+2w39701 0.3 1009314
06:000w39730 0.0 1010282
09:00+5wnw594730 0.0 10091329
12:00+9wnw6924100 0.0 10072248
15:00+12wnw6920100 0.0 10043298
18:00+11wnw672397 0.0 10042966
21:00+6w5103689 0.0 1006776
14 may, fri
fri1400:00+3wnw39483 0.0 1009349
03:000w386889 0.0 1009333
06:00+4nnw496783 0.0 10091194
09:00+6nnw475175 0.0 10101442
12:00+8nnw5738100 0.1 10092135
15:00+11nw6835100 0.1 10082588
18:00+11nnw573593 0.0 10082145
21:00+7nnw235232 0.1 101063
15 may, sat
sat1500:00+4w11665 0.1 101213
03:00+2wsw11745 0.1 101410
06:00+1wsw22630 0.0 101524
09:00+8w24370 0.0 1014527
12:00+14w46181 0.0 10111768
15:00+18w57144 0.0 10082509
18:00+18w57165 0.0 10072832
21:00+13wsw310285 0.0 1008239
16 may, sun
sun1600:00+9wnw513370 0.0 1011667
03:00+6wnw614451 0.0 10131026
06:00+5wnw614453 0.0 10131048
09:00+9wnw813435 0.0 10121422
12:00+13wnw8114099 0.0 10101411
15:00+16wnw9123429 0.0 10102154
18:00+15wnw9134539 0.0 10101669
21:00+13wnw7145410 0.0 10101258